Fort Simpson, Northwest Territories

2:52 PM MDT on September 19, 2017 (GMT -0600)
Fort Simpson

Weather History for CZFS - December, 2013

Change the Weather History Date:

Tuesday, December 3, 2013

  Actual Average (CYFS) Record (CYFS)
Temperature  
Mean Temperature -8 °F -  
Max Temperature 6 °F 2 °F 24 °F (2003)
Min Temperature -21 °F -6 °F -38 °F (2007)
Degree Days  
Heating Degree Days 72    
Moisture  
Dew Point -11 °F    
Average Humidity 82    
Maximum Humidity 90    
Minimum Humidity 67    
Precipitation  
Precipitation 0.00 in - - ()
Sea Level Pressure  
Sea Level Pressure 30.75 in    
Wind  
Wind Speed 3 mph ()    
Max Wind Speed 8 mph    
Max Gust Speed -    
Averages and records for this station are not official NWS values.
T = Trace of Precipitation, MM = Missing Value Source: Averaged Metar Reports

Daily Weather History Graph

Daily Weather History Graph

Search for Another Location

Airport or City:

Trip Planner

Search our weather history database for the weather conditions in past years. The results will help you decide how hot, cold, wet, or windy it might be!

Date:

Astronomy

Dec. 03, 2013 Rise Set
Actual Time 10:01 AM MST 3:48 PM MST
Civil Twilight 9:00 AM MST 4:49 PM MST
Nautical Twilight 8:00 AM MST 5:48 PM MST
Astronomical Twilight 7:07 AM MST 6:42 PM MST
Moon 10:26 AM MST (12/3) 5:07 PM MST (12/3)
Length of Visible Light 7h 48m
Length of Day
5h 47m
New Moon, 1% of the Moon is Illuminated
Dec 3
New Moon
Dec 9
First Quarter
Dec 17
Full
Dec 25
Last Quarter
Jan 1
New

Hourly Weather History & Observations

Time (MST) Temp. Windchill Dew Point Humidity Pressure Visibility Wind Dir Wind Speed Gust Speed Precip Events Conditions
12:00 AM -13.7 °F - -18.2 °F 80% 30.71 in - Calm Calm - N/A   Unknown
1:00 AM -11.7 °F - -15.9 °F 82% 30.72 in - West 1.2 mph - N/A   Unknown
2:00 AM -13.0 °F - -17.7 °F 80% 30.72 in - Calm Calm - N/A   Unknown
3:00 AM -8.9 °F - -12.8 °F 83% 30.71 in - Calm Calm - N/A   Unknown
4:00 AM -9.0 °F - -12.6 °F 84% 30.73 in - Calm Calm - N/A   Unknown
5:00 AM 4 °F - 2 °F 85% 30.74 in - NNW 8.1 mph - -  
5:00 AM 4.5 °F -8.7 °F 1.8 °F 89% 30.74 in - NNW 8.1 mph - N/A   Unknown
6:00 AM 1.2 °F -10.1 °F -2.4 °F 85% 30.75 in - NW 5.8 mph - N/A   Unknown
7:00 AM 4.6 °F -7.4 °F 1.4 °F 86% 30.74 in - WNW 6.9 mph - N/A   Unknown
8:00 AM 2.5 °F -7.0 °F 0.1 °F 90% 30.76 in - NW 4.6 mph - N/A   Unknown
9:00 AM 5.4 °F -1.7 °F 2.5 °F 88% 30.76 in - WNW 3.5 mph - N/A   Unknown
10:00 AM 6.6 °F -5.0 °F 3.4 °F 87% 30.76 in - NW 6.9 mph - N/A   Unknown
11:00 AM 2 °F - -2 °F 77% 30.77 in - NNW 8.1 mph - -  
11:00 AM 1.6 °F -12.2 °F -1.7 °F 86% 30.77 in - NNW 8.1 mph - N/A   Unknown
12:00 PM 0.1 °F -7.7 °F -2.9 °F 87% 30.78 in - NW 3.5 mph - N/A   Unknown
1:00 PM -2.2 °F -15.6 °F -6.0 °F 84% 30.77 in - NNW 6.9 mph - N/A   Unknown
2:00 PM 0.1 °F -11.4 °F -4.2 °F 82% 30.76 in - NW 5.8 mph - N/A   Unknown
3:00 PM -2.0 °F - -7.2 °F 78% 30.76 in - West 1.2 mph - N/A   Unknown
4:00 PM -9.9 °F - -13.9 °F 83% 30.76 in - NNW 2.3 mph - N/A   Unknown
5:00 PM -10 °F - -14 °F 74% 30.75 in - WNW 1.2 mph - -  
5:00 PM -9.9 °F - -13.9 °F 83% 30.75 in - WNW 1.2 mph - N/A   Unknown
6:00 PM -13.4 °F - -17.9 °F 80% 30.75 in - Calm Calm - N/A   Unknown
7:00 PM -17.5 °F - -22.5 °F 78% 30.76 in - Calm Calm - N/A   Unknown
8:00 PM -18.0 °F - -22.9 °F 78% 30.75 in - NNW 1.2 mph - N/A   Unknown
9:00 PM -18.8 °F - -23.6 °F 78% 30.75 in - Calm Calm - N/A   Unknown
10:00 PM -21.8 °F - -27.0 °F 77% 30.74 in - NNW 1.2 mph - N/A   Unknown
11:00 PM -19 °F - -24 °F 67% 30.73 in - SSE 2.3 mph - -  
11:00 PM -19.1 °F - -23.8 °F 79% 30.73 in - SSE 2.3 mph - N/A   Unknown